Weather Roundup
Issued by NWS

Home | Current Version | Previous Version | Text Only | Print | Product List | Glossary On
Versions: 1 2 3 4 5 6 7 8 9 10 11 12 13 14 15 16 17 18 19 20 21 22 23 24 25 26 27 28 29 30 31 32 33 34 35 36 37 38 39 40 41 42 43 44 45 46 47 48 49 50
000
NZUS93 KARX 241759
HRRWXR

CURRENT HOURLY OBSERVATIONS ACROSS
MUCH OF THE UPPER MISSISSIPPI VALLEY
NATIONAL WEATHER SERVICE LA CROSSE WI
100 PM CDT SUN JUL 24 2016


...SOUTHEAST MINNESOTA...


CITY           SKY/WX    TMP DP  RH WIND       PRES   REMARKS
ROCHESTER      SUNNY     82  67  60 NW14G21   29.92R
ROCHESTER/MAYO FAIR      81  62  51 W15G23    29.91S
WINONA         SUNNY     82  63  51 NW12G20   29.87R
AUSTIN         SUNNY     81  61  50 NW17      29.92F
ALBERT LEA     SUNNY     81  64  57 NW7       29.93F
DODGE CENTER   SUNNY     81  61  50 NW13G18   29.92F
PRESTON        SUNNY     81  62  52 NW14G21   29.92S
OWATONNA       SUNNY     81  63  54 W10       29.92F
FARIBAULT      SUNNY     81  64  57 W6G17     29.91F
$$

...ELSEWHERE IN MINNESOTA...


CITY           SKY/WX    TMP DP  RH WIND       PRES   REMARKS
MINNEAPOLIS    PTSUNNY   82  63  52 W16       29.88S
INTNL FALLS    PTSUNNY   73  60  63 W12G22    29.80R
DULUTH         MOSUNNY   78  61  55 W17       29.83R
RED WING       SUNNY     86  61  42 W15       29.86S
REDWOOD FALLS  MOSUNNY   79  60  52 W16       29.96R
MANKATO        SUNNY     81  61  50 NW16      29.93R
WORTHINGTON    SUNNY     78  62  57 NW6       30.02R
FAIRMONT       SUNNY     79  45  29 NW13      29.95F
$$

...SOUTHWEST WISCONSIN...


CITY           SKY/WX    TMP DP  RH WIND       PRES   REMARKS
LA CROSSE      SUNNY     88  62  41 NW18      29.85R
PRAIRIE DU CHI PTSUNNY   86  76  71 W7        29.85R HX  95
BOSCOBEL       CLOUDY    87  78  74 W8        29.85S HX 100
LONE ROCK      NOT AVBL
PLATTEVILLE    CLOUDY    84  81  89 W8        29.87S HX  99
FORT MC COY    PTSUNNY   85  74  68 W9G17     29.85R HX  93
MAUSTON-NEW LI CLOUDY    84  78  82 SW6       29.83S HX  95
VIROQUA        MOCLDY    84  75  74 W8        29.88R HX  92
WIS DELLS      NOT AVBL
$$

...ELSEWHERE IN WISCONSIN...


CITY           SKY/WX    TMP DP  RH WIND       PRES   REMARKS
MILWAUKEE      PTSUNNY   91  76  61 SW20G28   29.84S HX 103
MADISON        PTSUNNY   85  78  80 SW5       29.83F HX  96
GREEN BAY      CLOUDY    76  76 100 S8        29.81R
EAU CLAIRE     NOT AVBL
BLACK RVR FLS  MOCLDY    86  70  58 W12G18    29.84R HX  90
MEDFORD        NOT AVBL
WAUSAU         CLOUDY    76  72  87 W10       29.82S
WIS RAPIDS     MOSUNNY   85  73  67 NW8       29.85R HX  91
MARSHFIELD     CLOUDY    80  71  74 W8        29.86R
RICE LAKE      MOSUNNY   79  64  59 W12G22    29.88R
$$

...NORTHEAST IOWA...


CITY           SKY/WX    TMP DP  RH WIND       PRES   REMARKS
WATERLOO       SUNNY     86  70  58 NW14      29.89R HX  90
DUBUQUE        CLOUDY    86  79  79 W9        29.88R HX  99
DECORAH        MOSUNNY   84  70  61 NW14G21   29.90R
MASON CITY     SUNNY     83  62  49 NW17      29.95S
CHARLES CITY   SUNNY     82  66  57 NW14G22   29.93R
OELWEIN        MOSUNNY   84  75  74 NW10G20   29.91R HX  92
$$

...ELSEWHERE IN IOWA...


CITY           SKY/WX    TMP DP  RH WIND       PRES   REMARKS
DES MOINES     MOSUNNY   87  68  52 N9        29.93R HX  90
IOWA CITY      PTSUNNY   89  78  70 W8        29.88S HX 103
FORT DODGE     MOSUNNY   82  66  57 N8        29.98S
MARSHALLTOWN   SUNNY     86  72  62 N15G23    29.92R HX  92
CEDAR RAPIDS   CLOUDY    85  81  88 NW12      29.89R HX 100
$$

...NORTHERN ILLINOIS...


CITY           SKY/WX    TMP DP  RH WIND       PRES   REMARKS
CHICAGO-OHARE  PTSUNNY   89  78  70 S16G23    29.88S HX 103
CHICAGO-MIDWAY CLOUDY    90  77  65 SW15G22   29.89S HX 103
MOLINE         CLOUDY    92  77  61 SW12      29.86S HX 105
ROCKFORD       PTSUNNY   92  77  61 SW18      29.87S HX 105
PEORIA         SUNNY     90  81  74 S13       29.90F HX 109
$$

NOTE: "FAIR" INDICATES FEW OR NO CLOUDS BELOW 12,000 FEET WITH NO
SIGNIFICANT WEATHER AND/OR OBSTRUCTIONS TO VISIBILITY. WIND
SPEEDS ARE IN MILES-PER-HOUR.




USA.gov is the U.S. government's official web portal to all federal, state and local government web resources and services.